Lapse_Rate
7.6 7.4 7.6 7.8 7.5 7.5 7.9 7.9 7.9 7.6 7.3 7.0 6.9 7.1 7.1 7.1 7.3 7.4 7.2 7.3 7.3 7.2 7.1 6.9 6.8 6.9 6.8 6.8 6.7 6.4 6.3 6.0
8.1 8.2 7.9 8.1 7.6 7.5 7.5 7.8 7.5 7.6 7.5 7.2 6.9 7.2 7.4 7.2 7.2 7.3 7.1 7.2 7.2 7.2 7.1 6.9 6.9 6.9 6.7 6.7 6.7 6.5 6.3 6.1
7.9 8.0 8.0 7.8 7.4 7.4 7.3 7.1 7.5 7.5 7.4 7.4 7.2 7.1 7.3 7.3 7.1 7.1 7.0 7.3 7.3 7.3 7.2 6.9 6.8 6.8 6.7 6.7 6.7 6.5 6.3 6.0
7.6 7.8 8.0 7.9 7.7 7.4 7.3 7.2 7.2 7.3 7.4 7.2 7.3 7.1 6.9 6.8 7.0 7.2 7.3 7.3 7.1 7.1 7.1 7.1 6.9 6.9 6.8 6.7 6.6 6.4 6.3 6.0
7.9 7.7 7.6 7.7 7.4 7.5 7.5 7.4 7.3 7.4 7.3 7.2 7.1 7.2 7.2 7.3 7.1 7.0 6.8 6.9 7.0 7.0 7.1 7.1 7.0 6.9 6.9 6.6 6.6 6.4 6.0 6.1
7.8 7.8 7.9 7.7 7.5 7.9 7.9 7.7 7.5 7.5 7.6 7.4 7.2 7.2 7.3 7.0 6.9 6.9 6.8 6.8 6.9 7.0 7.2 7.2 7.1 7.0 6.9 6.5 6.5 6.3 6.0 5.8
7.9 7.9 8.0 7.7 7.6 7.5 7.9 7.8 7.8 7.7 7.6 7.4 7.2 7.4 7.2 6.9 6.8 6.9 6.9 6.9 7.0 7.1 7.3 7.4 7.3 7.2 7.1 6.7 6.5 6.3 5.9 5.7
7.9 7.7 7.8 7.8 7.3 7.5 7.8 7.8 7.7 7.8 7.6 7.6 7.5 7.4 7.4 7.2 7.0 7.1 6.9 7.1 7.2 7.2 7.3 7.4 7.4 7.2 7.1 6.9 6.8 6.5 5.9 5.6
7.3 7.2 7.1 6.9 6.8 6.9 7.2 7.1 7.4 7.4 7.3 7.5 7.6 7.4 7.4 7.3 7.1 7.3 7.4 7.1 7.1 6.9 7.1 7.3 7.4 7.3 7.3 7.2 7.0 6.6 6.0 5.6
7.1 6.8 6.8 7.0 7.1 6.9 6.7 6.8 7.0 7.0 7.0 7.1 7.2 7.4 7.2 7.1 6.9 6.9 7.1 6.8 6.7 6.7 6.8 7.2 7.4 7.6 7.4 7.3 7.0 6.8 6.0 5.4
6.3 6.6 7.1 7.4 7.3 7.1 7.2 7.1 7.0 7.2 7.2 7.2 6.8 7.1 6.9 7.1 7.2 6.9 6.9 6.9 6.6 6.6 6.8 7.0 7.3 7.6 7.5 7.3 7.1 6.8 6.1 5.2
6.5 6.4 6.8 7.0 7.0 7.1 7.2 7.5 7.7 7.6 7.7 7.6 7.4 7.0 6.9 7.3 7.2 6.6 6.6 6.7 6.5 6.4 6.7 6.9 7.1 7.5 7.6 7.5 7.2 6.8 6.2 4.9
5.7 5.8 6.1 6.9 7.3 7.2 7.3 7.5 7.4 7.4 7.6 7.4 7.4 7.2 7.0 6.8 6.5 6.5 6.6 6.5 6.3 6.3 6.4 6.9 7.0 7.3 7.6 7.7 7.3 6.7 6.2 5.1
5.7 5.7 6.1 6.6 6.7 6.9 7.0 7.1 7.0 6.8 6.9 6.6 5.8 5.7 6.4 6.6 6.5 6.5 6.4 6.3 6.3 6.2 6.4 6.6 7.2 7.4 7.5 7.8 7.4 7.0 6.4 5.3
5.6 5.8 6.1 6.0 6.1 6.0 5.7 5.6 5.8 6.1 5.9 5.8 5.9 6.1 6.2 6.0 6.6 6.4 6.3 6.2 6.3 6.4 6.5 6.4 6.9 7.3 7.6 7.6 7.6 7.2 6.6 5.5
5.8 5.9 5.8 5.7 5.8 5.7 5.5 5.3 5.6 5.8 5.8 5.8 5.8 5.8 5.8 5.8 6.2 6.7 6.5 6.8 6.5 6.3 6.2 6.4 6.7 7.2 7.4 7.8 7.6 7.4 7.0 6.3
5.3 5.5 5.6 5.7 5.6 5.6 5.5 5.6 5.7 5.6 5.8 5.6 5.6 5.6 5.8 5.7 5.7 6.3 6.3 6.1 6.5 6.3 5.6 6.3 6.6 7.2 7.3 7.5 7.7 7.4 7.0 6.6
5.7 5.8 5.7 5.6 5.5 5.4 5.7 5.7 5.6 5.6 5.8 6.1 5.8 5.5 5.8 5.7 5.6 5.6 5.6 6.0 5.8 6.1 5.6 6.1 6.3 6.6 7.2 7.4 7.4 7.2 6.9 6.3
5.3 5.5 5.5 5.5 5.6 5.5 5.4 5.4 5.4 5.5 5.6 5.4 5.4 5.5 5.5 5.3 5.7 5.5 5.6 5.5 5.4 6.1 6.1 6.1 6.5 6.7 6.7 7.2 7.2 6.9 6.7 5.9
Wind_Speed
13 13 16 14 11 13 14 14 16 15 9 6 4 6 6 7 8 8 13 13 13 8 6 7 8 7 6 6 7 7 6 7
9 4 5 2 7 15 16 15 13 11 10 10 8 10 9 8 8 9 11 12 13 10 7 7 7 9 9 9 7 7 5 4
10 11 12 11 7 3 6 10 14 15 12 12 7 9 5 6 5 7 9 10 12 11 10 8 9 7 8 10 9 5 5 7
11 12 11 10 13 13 6 7 9 9 7 5 3 6 5 3 8 9 10 9 10 10 11 10 9 9 9 10 10 10 7 6
12 11 10 13 12 12 13 8 7 5 6 9 11 12 10 8 7 8 9 10 10 10 12 11 10 8 9 9 9 10 9 8
13 12 11 13 13 11 11 11 11 11 2 9 8 9 8 3 4 8 10 10 11 11 12 12 11 9 10 10 9 10 9 8
14 11 10 13 11 11 10 12 10 10 9 6 9 10 9 7 9 8 9 7 9 11 11 11 11 11 10 10 10 12 11 10
14 13 12 14 14 13 11 12 9 9 9 8 7 8 7 12 11 11 10 8 7 11 12 11 10 10 11 10 10 10 10 11
14 16 13 14 14 15 15 13 12 10 7 7 8 10 7 7 8 8 8 10 10 8 12 11 12 11 10 9 7 8 10 10
16 15 14 14 14 15 14 15 14 14 13 10 8 9 11 12 11 10 9 8 6 9 12 12 11 11 10 8 7 8 8 9
15 16 16 14 14 13 15 14 13 12 13 13 11 8 12 13 11 12 11 9 9 10 12 11 11 9 8 7 7 7 9 8
16 17 16 17 17 17 14 15 15 14 13 13 14 7 10 10 10 10 11 10 11 12 12 10 10 8 8 8 8 9 10 9
16 18 16 18 18 17 16 16 15 14 13 13 15 14 14 3 7 9 9 12 11 12 11 11 9 9 9 9 9 7 8 10
14 13 15 16 16 16 16 17 17 16 15 14 13 14 14 13 12 6 9 10 11 10 10 11 11 10 9 8 8 7 7 8
14 15 14 14 14 15 16 16 16 16 15 15 15 15 14 13 13 14 7 9 11 12 11 10 10 9 9 8 8 8 7 8
15 16 15 15 15 15 16 16 16 15 16 17 16 13 12 14 15 16 17 6 10 11 8 8 9 8 5 8 8 7 7 6
13 14 16 15 16 14 14 15 15 15 16 16 16 14 14 14 13 15 17 16 16 9 9 4 7 4 4 2 3 7 7 7
14 14 14 14 14 14 14 14 14 16 16 16 17 16 16 15 14 17 15 17 15 14 14 11 10 8 6 2 2 2 4 5
11 10 11 12 13 13 12 14 14 15 16 16 15 15 16 15 15 15 14 11 11 14 14 13 11 10 14 11 12 9 8 9
Wind_Direction
235 200 199 204 208 208 198 188 186 178 166 144 141 166 173 175 182 186 177 182 180 176 177 175 171 177 182 181 187 196 200 207
234 294 63 13 248 210 190 187 185 170 166 169 171 193 188 188 189 185 182 174 177 181 181 180 180 189 191 189 190 193 195 165
73 54 48 40 15 281 246 208 179 183 184 192 184 178 189 182 170 182 190 180 180 182 181 186 186 186 190 192 195 192 196 177
72 63 60 47 28 5 336 171 177 195 187 163 84 110 104 122 190 194 199 191 185 186 186 183 184 188 197 197 195 201 199 190
49 32 30 54 32 12 16 23 134 166 154 171 179 181 186 204 202 194 194 192 193 195 190 187 186 192 196 197 195 201 189 199
51 35 16 43 33 13 11 17 32 17 316 169 183 198 195 135 151 179 191 198 196 195 197 198 197 201 206 196 197 200 207 208
49 29 16 37 29 21 13 15 23 10 352 343 185 201 183 172 174 182 189 194 198 198 192 194 196 202 202 207 203 208 209 215
50 32 19 29 23 18 16 7 5 6 346 333 319 216 200 209 188 189 184 190 196 199 187 195 197 199 202 200 195 207 218 219
46 43 31 33 25 17 10 3 359 353 343 328 307 287 220 210 202 202 200 205 209 181 196 197 201 192 193 192 200 213 219 226
42 44 35 34 29 25 13 1 355 348 341 334 315 259 244 213 206 204 202 198 196 189 196 193 187 188 187 186 209 218 225 239
36 36 28 34 30 25 19 11 4 350 344 336 321 252 252 220 207 202 197 193 183 189 193 185 184 181 176 191 218 223 232 240
25 27 16 23 21 23 17 11 5 2 356 346 340 319 237 213 205 205 198 192 187 195 192 184 184 179 178 195 221 227 223 230
25 25 11 22 19 12 14 10 2 3 356 358 357 355 359 237 197 203 197 196 190 194 192 185 181 184 186 199 212 214 216 222
24 21 22 19 11 9 9 9 6 2 4 9 2 5 6 0 349 203 194 192 187 187 186 186 185 184 181 194 202 208 217 221
22 22 21 15 13 9 7 8 8 5 9 13 13 10 5 5 357 357 220 196 191 185 179 186 184 177 184 191 196 206 208 217
22 19 12 11 13 11 9 8 6 9 15 17 14 6 9 20 15 16 2 289 194 176 165 189 176 175 175 192 192 197 192 180
22 22 18 14 15 12 11 7 7 9 20 20 15 12 16 32 26 29 23 12 13 16 71 88 84 79 22 28 258 195 193 187
16 17 17 8 8 9 11 7 10 17 16 16 17 14 19 22 30 34 34 27 23 20 31 36 45 30 12 138 182 57 90 73
17 20 11 11 6 17 12 20 20 20 19 13 10 19 23 22 28 36 27 33 30 34 29 26 40 29 29 52 83 81 71 58